| time (UTC) | temp C | wind direction | speed KPH | gust KPH | rain 1hr cm | rain 24hr cm | rain mn cm | humidity % | barometer mb |
| 20260508082908 | 0 | 78 | 0.0 | 0.0 | 0.00 | 0.00 | 0.00 | 98 | 1017.3 |
| 20260508082406 | 0 | 101 | 0.0 | 1.6 | 0.00 | 0.00 | 0.00 | 98 | 1017.0 |
| 20260508081903 | 0 | 105 | 0.0 | 1.6 | 0.00 | 0.00 | 0.00 | 98 | 1017.0 |
| 20260508081400 | 0 | 132 | 0.0 | 1.6 | 0.00 | 0.00 | 0.00 | 99 | 1017.1 |
| 20260508080856 | 0 | 281 | 0.0 | 3.2 | 0.00 | 0.00 | 0.00 | 98 | 1016.8 |
| 20260508080355 | 0 | 349 | 1.6 | 1.6 | 0.00 | 0.00 | 0.00 | 98 | 1017.1 |
| 20260508075851 | 0 | 312 | 3.2 | 4.8 | 0.00 | 0.00 | 0.00 | 98 | 1017.1 |
| 20260508075348 | 0 | 94 | 0.0 | 0.0 | 0.00 | 0.00 | 0.00 | 98 | 1017.1 |
| 20260508074846 | 0 | 147 | 0.0 | 0.0 | 0.00 | 0.00 | 0.00 | 97 | 1016.8 |
| 20260508074343 | 0 | 148 | 0.0 | 0.0 | 0.00 | 0.00 | 0.00 | 97 | 1017.1 |
| 20260508073840 | 0 | 58 | 0.0 | 3.2 | 0.00 | 0.00 | 0.00 | 97 | 1016.8 |
| 20260508073338 | 0 | 175 | 1.6 | 1.6 | 0.00 | 0.00 | 0.00 | 97 | 1017.0 |
| 20260508072834 | 0 | 123 | 0.0 | 0.0 | 0.00 | 0.00 | 0.00 | 97 | 1016.7 |
| 20260508072330 | 0 | 127 | 1.6 | 3.2 | 0.00 | 0.00 | 0.00 | 96 | 1016.8 |
| 20260508071828 | 0 | 9 | 0.0 | 0.0 | 0.00 | 0.00 | 0.00 | 95 | 1016.7 |
| 20260508071326 | 0 | 149 | 1.6 | 1.6 | 0.00 | 0.00 | 0.00 | 96 | 1016.8 |
| 20260508070823 | 0 | 333 | 0.0 | 1.6 | 0.00 | 0.00 | 0.00 | 95 | 1016.8 |
| 20260508070322 | 1 | 148 | 1.6 | 1.6 | 0.00 | 0.00 | 0.00 | 97 | 1017.0 |
| 20260508065819 | 0 | 148 | 1.6 | 1.6 | 0.00 | 0.00 | 0.00 | 97 | 1017.0 |
| 20260508065317 | 0 | 270 | 3.2 | 6.4 | 0.00 | 0.00 | 0.00 | 96 | 1016.8 |
| 20260508064814 | 0 | 156 | 0.0 | 1.6 | 0.00 | 0.00 | 0.00 | 96 | 1016.7 |
| 20260508064312 | 0 | 295 | 0.0 | 3.2 | 0.00 | 0.00 | 0.00 | 96 | 1017.0 |
| 20260508063809 | 0 | 151 | 0.0 | 0.0 | 0.00 | 0.00 | 0.00 | 96 | 1017.0 |
| 20260508063307 | 0 | 198 | 0.0 | 0.0 | 0.00 | 0.00 | 0.00 | 96 | 1017.1 |
| 20260508062804 | 0 | 294 | 0.0 | 0.0 | 0.00 | 0.00 | 0.00 | 95 | 1017.0 |
| 20260508062305 | 0 | 294 | 0.0 | 0.0 | 0.00 | 0.00 | 0.00 | 95 | 1017.0 |
| 20260508061758 | 1 | 163 | 0.0 | 1.6 | 0.00 | 0.00 | 0.00 | 96 | 1017.0 |
| 20260508061255 | 1 | 197 | 0.0 | 0.0 | 0.00 | 0.00 | 0.00 | 95 | 1016.8 |
| 20260508060752 | 1 | 288 | 0.0 | 3.2 | 0.00 | 0.00 | 0.00 | 95 | 1016.7 |
| 20260508060250 | 1 | 275 | 0.0 | 3.2 | 0.00 | 0.00 | 0.00 | 95 | 1016.7 |
| 20260508055745 | 1 | 294 | 0.0 | 0.0 | 0.00 | 0.00 | 0.00 | 95 | 1016.5 |
| 20260508055242 | 1 | 158 | 0.0 | 1.6 | 0.00 | 0.00 | 0.00 | 95 | 1016.7 |
| 20260508054739 | 1 | 142 | 1.6 | 1.6 | 0.00 | 0.00 | 0.00 | 95 | 1016.7 |
| 20260508054237 | 1 | 303 | 0.0 | 0.0 | 0.00 | 0.00 | 0.00 | 93 | 1016.7 |
| 20260508053734 | 1 | 304 | 0.0 | 3.2 | 0.00 | 0.00 | 0.00 | 93 | 1016.7 |
| 20260508053231 | 1 | 108 | 0.0 | 0.0 | 0.00 | 0.00 | 0.00 | 93 | 1016.8 |
| 20260508052728 | 1 | 109 | 0.0 | 1.6 | 0.00 | 0.00 | 0.00 | 93 | 1016.7 |
| 20260508052225 | 1 | 238 | 0.0 | 3.2 | 0.00 | 0.00 | 0.00 | 93 | 1016.6 |
| 20260508051721 | 1 | 196 | 0.0 | 0.0 | 0.00 | 0.00 | 0.00 | 92 | 1016.8 |
| 20260508051217 | 1 | 141 | 1.6 | 1.6 | 0.00 | 0.00 | 0.00 | 91 | 1016.6 |
| 20260508050714 | 2 | 97 | 0.0 | 1.6 | 0.00 | 0.00 | 0.00 | 91 | 1016.6 |
| 20260508050212 | 2 | 163 | 0.0 | 1.6 | 0.00 | 0.00 | 0.00 | 93 | 1016.6 |
| 20260508045712 | 2 | 139 | 1.6 | 1.6 | 0.00 | 0.00 | 0.00 | 92 | 1016.7 |
| 20260508045210 | 2 | 299 | 1.6 | 3.2 | 0.00 | 0.00 | 0.00 | 93 | 1016.5 |
| 20260508044707 | 2 | 89 | 1.6 | 4.8 | 0.00 | 0.00 | 0.00 | 90 | 1016.6 |
| 20260508044203 | 2 | 136 | 0.0 | 0.0 | 0.00 | 0.00 | 0.00 | 91 | 1016.7 |
| 20260508043659 | 2 | 151 | 0.0 | 0.0 | 0.00 | 0.00 | 0.00 | 90 | 1016.4 |
| 20260508043158 | 2 | 183 | 0.0 | 0.0 | 0.00 | 0.00 | 0.00 | 90 | 1016.7 |
| 20260508042654 | 2 | 153 | 0.0 | 1.6 | 0.00 | 0.00 | 0.00 | 89 | 1016.6 |
| 20260508042151 | 2 | 138 | 1.6 | 1.6 | 0.00 | 0.00 | 0.00 | 90 | 1016.5 |
| 20260508041647 | 2 | 144 | 1.6 | 1.6 | 0.00 | 0.00 | 0.00 | 90 | 1016.5 |
| 20260508041144 | 2 | 150 | 0.0 | 1.6 | 0.00 | 0.00 | 0.00 | 91 | 1016.8 |
| 20260508040641 | 2 | 161 | 0.0 | 0.0 | 0.00 | 0.00 | 0.00 | 90 | 1016.3 |
| 20260508040138 | 3 | 189 | 0.0 | 0.0 | 0.00 | 0.03 | 0.03 | 90 | 1016.5 |
| 20260508035636 | 3 | 283 | 0.0 | 0.0 | 0.00 | 0.03 | 0.03 | 87 | 1016.4 |
| 20260508035133 | 3 | 141 | 0.0 | 0.0 | 0.00 | 0.03 | 0.03 | 84 | 1016.3 |
| 20260508034630 | 4 | 119 | 0.0 | 0.0 | 0.00 | 0.03 | 0.03 | 84 | 1016.3 |
| 20260508034127 | 5 | 66 | 1.6 | 1.6 | 0.00 | 0.03 | 0.03 | 80 | 1016.4 |
| 20260508033624 | 5 | 143 | 0.0 | 0.0 | 0.00 | 0.03 | 0.03 | 75 | 1016.3 |
| 20260508033122 | 5 | 103 | 0.0 | 1.6 | 0.00 | 0.03 | 0.03 | 80 | 1016.3 |
| 20260508032618 | 5 | 99 | 0.0 | 1.6 | 0.00 | 0.03 | 0.03 | 76 | 1016.0 |
| 20260508032116 | 5 | 128 | 0.0 | 0.0 | 0.00 | 0.03 | 0.03 | 78 | 1016.0 |
| 20260508031613 | 5 | 151 | 1.6 | 3.2 | 0.00 | 0.03 | 0.03 | 82 | 1016.0 |
| 20260508031108 | 5 | 132 | 3.2 | 3.2 | 0.00 | 0.03 | 0.03 | 83 | 1016.1 |
| 20260508030605 | 6 | 178 | 0.0 | 0.0 | 0.00 | 0.03 | 0.03 | 72 | 1016.0 |
| 20260508030104 | 5 | 295 | 3.2 | 3.2 | 0.00 | 0.03 | 0.03 | 73 | 1015.9 |
| 20260508025559 | 6 | 146 | 0.0 | 1.6 | 0.00 | 0.03 | 0.03 | 75 | 1016.0 |
| 20260508025057 | 6 | 148 | 0.0 | 0.0 | 0.00 | 0.03 | 0.03 | 74 | 1015.7 |
| 20260508024552 | 6 | 148 | 0.0 | 0.0 | 0.00 | 0.03 | 0.03 | 74 | 1015.7 |
| 20260508024050 | 7 | 291 | 0.0 | 0.0 | 0.00 | 0.03 | 0.03 | 66 | 1015.7 |
| 20260508023546 | 8 | 298 | 0.0 | 3.2 | 0.00 | 0.03 | 0.03 | 64 | 1015.8 |
| 20260508023044 | 6 | 289 | 3.2 | 9.7 | 0.00 | 0.03 | 0.03 | 69 | 1015.6 |
| 20260508022539 | 6 | 164 | 0.0 | 0.0 | 0.00 | 0.03 | 0.03 | 79 | 1015.5 |
| 20260508022037 | 6 | 165 | 0.0 | 0.0 | 0.00 | 0.03 | 0.03 | 77 | 1015.5 |
| 20260508021532 | 7 | 187 | 0.0 | 0.0 | 0.00 | 0.03 | 0.03 | 75 | 1015.6 |
| 20260508021028 | 7 | 284 | 0.0 | 0.0 | 0.00 | 0.03 | 0.03 | 68 | 1015.6 |
| 20260508020526 | 7 | 287 | 0.0 | 0.0 | 0.00 | 0.03 | 0.03 | 68 | 1015.3 |
| 20260508020024 | 7 | 200 | 0.0 | 0.0 | 0.00 | 0.03 | 0.03 | 72 | 1015.3 |
| 20260508015521 | 8 | 246 | 0.0 | 0.0 | 0.00 | 0.03 | 0.03 | 64 | 1015.1 |
| 20260508015018 | 8 | 281 | 0.0 | 3.2 | 0.00 | 0.03 | 0.03 | 63 | 1015.1 |
| 20260508014514 | 8 | 281 | 3.2 | 4.8 | 0.00 | 0.03 | 0.03 | 61 | 1015.2 |
| 20260508014010 | 9 | 288 | 0.0 | 3.2 | 0.00 | 0.03 | 0.03 | 60 | 1015.1 |
| 20260508013507 | 9 | 308 | 0.0 | 1.6 | 0.00 | 0.03 | 0.03 | 62 | 1015.1 |
| 20260508013004 | 9 | 286 | 1.6 | 4.8 | 0.00 | 0.03 | 0.03 | 59 | 1015.1 |
| 20260508012501 | 9 | 302 | 1.6 | 4.8 | 0.00 | 0.03 | 0.03 | 60 | 1014.9 |
| 20260508011958 | 10 | 185 | 1.6 | 4.8 | 0.00 | 0.03 | 0.03 | 61 | 1014.9 |
| 20260508011456 | 10 | 283 | 1.6 | 11.3 | 0.00 | 0.03 | 0.03 | 59 | 1014.9 |
| 20260508010953 | 10 | 174 | 1.6 | 6.4 | 0.00 | 0.03 | 0.03 | 61 | 1015.0 |
| 20260508010450 | 9 | 304 | 3.2 | 6.4 | 0.00 | 0.03 | 0.03 | 63 | 1014.8 |
| 20260508005947 | 8 | 275 | 1.6 | 3.2 | 0.00 | 0.03 | 0.03 | 64 | 1014.8 |
| 20260508005444 | 8 | 117 | 0.0 | 0.0 | 0.00 | 0.03 | 0.03 | 68 | 1014.6 |
| 20260508004940 | 9 | 128 | 0.0 | 0.0 | 0.00 | 0.03 | 0.03 | 67 | 1014.8 |
| 20260508004436 | 10 | 284 | 0.0 | 3.2 | 0.00 | 0.03 | 0.03 | 61 | 1014.5 |
| 20260508003933 | 10 | 314 | 1.6 | 3.2 | 0.00 | 0.03 | 0.03 | 60 | 1014.5 |
| 20260508003430 | 10 | 155 | 6.4 | 9.7 | 0.00 | 0.03 | 0.03 | 56 | 1014.5 |
| 20260508002927 | 10 | 301 | 1.6 | 9.7 | 0.00 | 0.03 | 0.03 | 59 | 1014.3 |
| 20260508002424 | 10 | 295 | 4.8 | 6.4 | 0.00 | 0.03 | 0.03 | 57 | 1014.4 |
| 20260508001920 | 11 | 297 | 1.6 | 3.2 | 0.00 | 0.03 | 0.03 | 58 | 1014.0 |
| 20260508001417 | 11 | 292 | 3.2 | 6.4 | 0.00 | 0.03 | 0.03 | 57 | 1014.3 |
| 20260508000913 | 11 | 226 | 3.2 | 14.5 | 0.00 | 0.03 | 0.03 | 57 | 1013.9 |
| 20260508000412 | 11 | 277 | 8.0 | 16.1 | 0.00 | 0.03 | 0.03 | 54 | 1013.9 |
| 20260507235906 | 11 | 123 | 6.4 | 16.1 | 0.00 | 0.03 | 0.03 | 54 | 1014.2 |
| 20260507235403 | 11 | 300 | 1.6 | 4.8 | 0.00 | 0.03 | 0.03 | 54 | 1014.0 |
| 20260507234900 | 11 | 310 | 3.2 | 4.8 | 0.00 | 0.03 | 0.03 | 53 | 1014.0 |
| 20260507234359 | 12 | 200 | 1.6 | 3.2 | 0.00 | 0.03 | 0.03 | 51 | 1013.7 |
| 20260507233854 | 12 | 49 | 3.2 | 12.9 | 0.00 | 0.03 | 0.03 | 51 | 1013.7 |
| 20260507233351 | 12 | 237 | 1.6 | 6.4 | 0.00 | 0.03 | 0.03 | 51 | 1013.9 |
| 20260507232849 | 13 | 8 | 1.6 | 3.2 | 0.00 | 0.03 | 0.03 | 51 | 1013.7 |
| 20260507232345 | 13 | 260 | 1.6 | 4.8 | 0.00 | 0.03 | 0.03 | 51 | 1013.5 |
| 20260507231843 | 13 | 129 | 1.6 | 6.4 | 0.00 | 0.03 | 0.03 | 50 | 1013.4 |
| 20260507231339 | 13 | 306 | 1.6 | 16.1 | 0.00 | 0.03 | 0.03 | 52 | 1013.4 |
| 20260507230835 | 13 | 302 | 1.6 | 9.7 | 0.00 | 0.03 | 0.03 | 48 | 1013.6 |
| 20260507230333 | 13 | 275 | 1.6 | 20.9 | 0.00 | 0.03 | 0.03 | 48 | 1013.4 |
| 20260507225832 | 13 | 335 | 4.8 | 9.7 | 0.00 | 0.03 | 0.03 | 49 | 1013.3 |
| 20260507225329 | 13 | 175 | 4.8 | 20.9 | 0.00 | 0.03 | 0.03 | 50 | 1013.4 |
| 20260507224825 | 12 | 302 | 9.7 | 16.1 | 0.00 | 0.03 | 0.03 | 50 | 1013.3 |
| 20260507224322 | 13 | 307 | 1.6 | 3.2 | 0.00 | 0.03 | 0.03 | 50 | 1013.4 |
| 20260507223818 | 13 | 133 | 8.0 | 17.7 | 0.00 | 0.03 | 0.03 | 49 | 1013.1 |
| 20260507223314 | 14 | 291 | 3.2 | 17.7 | 0.00 | 0.03 | 0.03 | 49 | 1013.0 |
| 20260507222812 | 15 | 289 | 6.4 | 20.9 | 0.00 | 0.03 | 0.03 | 49 | 1013.0 |
| 20260507222308 | 15 | 294 | 3.2 | 12.9 | 0.00 | 0.03 | 0.03 | 47 | 1013.0 |
| 20260507221805 | 15 | 206 | 4.8 | 6.4 | 0.00 | 0.03 | 0.03 | 49 | 1013.1 |
| 20260507221301 | 15 | 324 | 3.2 | 6.4 | 0.00 | 0.03 | 0.03 | 49 | 1013.0 |
| 20260507220757 | 15 | 283 | 4.8 | 17.7 | 0.00 | 0.03 | 0.03 | 46 | 1012.9 |
| 20260507220256 | 15 | 308 | 4.8 | 9.7 | 0.00 | 0.03 | 0.03 | 48 | 1012.8 |
| 20260507215752 | 15 | 213 | 3.2 | 11.3 | 0.00 | 0.03 | 0.03 | 48 | 1012.4 |
| 20260507215250 | 16 | 284 | 8.0 | 12.9 | 0.00 | 0.03 | 0.03 | 52 | 1012.6 |
| 20260507214746 | 16 | 70 | 3.2 | 11.3 | 0.00 | 0.03 | 0.03 | 50 | 1012.5 |
| 20260507214244 | 15 | 35 | 3.2 | 11.3 | 0.00 | 0.03 | 0.03 | 49 | 1012.4 |
| 20260507213738 | 15 | 261 | 4.8 | 9.7 | 0.00 | 0.03 | 0.03 | 51 | 1012.4 |
| 20260507213236 | 16 | 298 | 4.8 | 17.7 | 0.00 | 0.03 | 0.03 | 49 | 1012.5 |
| 20260507212732 | 16 | 309 | 1.6 | 11.3 | 0.00 | 0.03 | 0.03 | 53 | 1012.4 |
| 20260507212229 | 15 | 33 | 6.4 | 20.9 | 0.00 | 0.03 | 0.03 | 53 | 1012.1 |
| 20260507211726 | 15 | 259 | 1.6 | 17.7 | 0.00 | 0.03 | 0.03 | 54 | 1012.2 |
| 20260507211222 | 15 | 322 | 16.1 | 20.9 | 0.00 | 0.03 | 0.03 | 57 | 1012.2 |
| 20260507210719 | 14 | 308 | 9.7 | 22.5 | 0.00 | 0.03 | 0.03 | 52 | 1011.9 |
| 20260507210216 | 14 | 107 | 9.7 | 14.5 | 0.00 | 0.03 | 0.03 | 56 | 1012.1 |
| 20260507205712 | 14 | 281 | 14.5 | 24.1 | 0.00 | 0.03 | 0.03 | 55 | 1012.1 |
| 20260507205209 | 14 | 315 | 9.7 | 22.5 | 0.00 | 0.03 | 0.03 | 56 | 1012.1 |
| 20260507204705 | 15 | 279 | 8.0 | 12.9 | 0.00 | 0.03 | 0.03 | 56 | 1011.9 |
| 20260507204203 | 16 | 309 | 4.8 | 11.3 | 0.00 | 0.03 | 0.03 | 55 | 1011.9 |
| 20260507203701 | 16 | 321 | 14.5 | 17.7 | 0.00 | 0.03 | 0.03 | 55 | 1012.1 |
| 20260507203158 | 16 | 311 | 6.4 | 24.1 | 0.00 | 0.03 | 0.03 | 55 | 1012.2 |
| 20260507202654 | 16 | 284 | 6.4 | 16.1 | 0.00 | 0.03 | 0.03 | 54 | 1012.0 |
| 20260507202150 | 15 | 268 | 6.4 | 16.1 | 0.00 | 0.03 | 0.03 | 55 | 1011.9 |
| 20260507201645 | 16 | 1 | 11.3 | 22.5 | 0.00 | 0.03 | 0.03 | 51 | 1012.0 |
| 20260507201142 | 17 | 246 | 4.8 | 11.3 | 0.00 | 0.03 | 0.03 | 52 | 1011.9 |
| 20260507200638 | 16 | 310 | 4.8 | 20.9 | 0.00 | 0.03 | 0.03 | 50 | 1012.1 |
| 20260507200134 | 16 | 296 | 8.0 | 14.5 | 0.00 | 0.03 | 0.03 | 53 | 1012.2 |
| 20260507195631 | 16 | 272 | 8.0 | 16.1 | 0.00 | 0.03 | 0.03 | 51 | 1011.9 |
| 20260507195128 | 16 | 290 | 3.2 | 11.3 | 0.00 | 0.03 | 0.03 | 52 | 1011.9 |
| 20260507194626 | 16 | 283 | 3.2 | 9.7 | 0.00 | 0.03 | 0.03 | 50 | 1011.9 |
| 20260507194120 | 16 | 57 | 1.6 | 6.4 | 0.00 | 0.03 | 0.03 | 50 | 1012.1 |
| 20260507193618 | 16 | 252 | 1.6 | 11.3 | 0.00 | 0.03 | 0.03 | 59 | 1012.1 |
| 20260507193115 | 16 | 278 | 3.2 | 12.9 | 0.00 | 0.03 | 0.03 | 54 | 1012.2 |
| 20260507192611 | 16 | 64 | 3.2 | 6.4 | 0.00 | 0.03 | 0.03 | 55 | 1012.1 |
| 20260507192108 | 16 | 147 | 6.4 | 14.5 | 0.00 | 0.03 | 0.03 | 54 | 1012.5 |
| 20260507191603 | 16 | 255 | 4.8 | 6.4 | 0.00 | 0.03 | 0.03 | 54 | 1012.4 |
| 20260507191101 | 16 | 130 | 3.2 | 4.8 | 0.00 | 0.03 | 0.03 | 58 | 1012.4 |
| 20260507190558 | 16 | 332 | 4.8 | 9.7 | 0.00 | 0.03 | 0.03 | 51 | 1012.7 |
| 20260507190057 | 16 | 0 | 3.2 | 6.4 | 0.00 | 0.03 | 0.03 | 54 | 1012.5 |
| 20260507185555 | 16 | 301 | 3.2 | 12.9 | 0.00 | 0.03 | 0.03 | 64 | 1012.6 |
| 20260507185051 | 14 | 192 | 9.7 | 29.0 | 0.00 | 0.03 | 0.03 | 61 | 1012.8 |
| 20260507184549 | 16 | 316 | 12.9 | 22.5 | 0.00 | 0.03 | 0.03 | 59 | 1012.7 |
| 20260507184047 | 16 | 309 | 3.2 | 6.4 | 0.00 | 0.03 | 0.03 | 59 | 1012.7 |
| 20260507183542 | 15 | 133 | 3.2 | 6.4 | 0.00 | 0.03 | 0.03 | 63 | 1012.7 |
| 20260507183040 | 13 | 79 | 0.0 | 6.4 | 0.00 | 0.03 | 0.03 | 63 | 1012.7 |
| 20260507182536 | 13 | 306 | 1.6 | 4.8 | 0.00 | 0.03 | 0.03 | 63 | 1012.7 |
| 20260507182032 | 13 | 282 | 0.0 | 3.2 | 0.00 | 0.03 | 0.03 | 62 | 1012.7 |
| 20260507181529 | 13 | 343 | 1.6 | 4.8 | 0.00 | 0.03 | 0.03 | 66 | 1012.5 |
| 20260507181025 | 13 | 299 | 3.2 | 6.4 | 0.00 | 0.03 | 0.03 | 65 | 1012.7 |
| 20260507180522 | 12 | 219 | 3.2 | 11.3 | 0.00 | 0.03 | 0.03 | 67 | 1012.9 |
| 20260507180019 | 13 | 234 | 3.2 | 9.7 | 0.00 | 0.03 | 0.03 | 69 | 1012.9 |
| 20260507175515 | 12 | 298 | 6.4 | 9.7 | 0.00 | 0.03 | 0.03 | 69 | 1012.8 |
| 20260507175013 | 13 | 289 | 6.4 | 9.7 | 0.00 | 0.03 | 0.03 | 69 | 1013.0 |
| 20260507174509 | 13 | 260 | 9.7 | 12.9 | 0.00 | 0.03 | 0.03 | 66 | 1012.9 |
| 20260507174007 | 13 | 301 | 0.0 | 1.6 | 0.00 | 0.03 | 0.03 | 67 | 1013.0 |
| 20260507173504 | 13 | 272 | 1.6 | 11.3 | 0.00 | 0.03 | 0.03 | 68 | 1013.1 |
| 20260507173001 | 13 | 340 | 6.4 | 11.3 | 0.00 | 0.03 | 0.03 | 68 | 1013.1 |
| 20260507172457 | 13 | 331 | 9.7 | 12.9 | 0.00 | 0.03 | 0.03 | 68 | 1013.1 |
| 20260507171954 | 13 | 352 | 0.0 | 4.8 | 0.00 | 0.03 | 0.03 | 68 | 1013.0 |
| 20260507171449 | 13 | 250 | 3.2 | 14.5 | 0.00 | 0.03 | 0.03 | 67 | 1013.2 |
| 20260507170947 | 13 | 304 | 3.2 | 12.9 | 0.00 | 0.03 | 0.03 | 69 | 1013.3 |
| 20260507170443 | 13 | 325 | 1.6 | 6.4 | 0.00 | 0.03 | 0.03 | 69 | 1013.3 |
| 20260507165940 | 13 | 334 | 1.6 | 6.4 | 0.00 | 0.03 | 0.03 | 66 | 1013.5 |
| 20260507165436 | 13 | 260 | 11.3 | 12.9 | 0.00 | 0.03 | 0.03 | 67 | 1013.3 |
| 20260507164932 | 14 | 310 | 1.6 | 3.2 | 0.00 | 0.03 | 0.03 | 62 | 1013.4 |
| 20260507164429 | 15 | 301 | 3.2 | 9.7 | 0.00 | 0.03 | 0.03 | 66 | 1013.4 |
| 20260507163926 | 15 | 215 | 3.2 | 6.4 | 0.00 | 0.03 | 0.03 | 62 | 1013.3 |
| 20260507163423 | 15 | 278 | 3.2 | 4.8 | 0.00 | 0.03 | 0.03 | 66 | 1013.4 |
| 20260507162920 | 15 | 334 | 4.8 | 9.7 | 0.00 | 0.03 | 0.03 | 58 | 1013.4 |
| 20260507162415 | 15 | 282 | 3.2 | 3.2 | 0.00 | 0.03 | 0.03 | 72 | 1013.6 |
| 20260507161913 | 15 | 307 | 11.3 | 14.5 | 0.00 | 0.03 | 0.03 | 66 | 1013.4 |
| 20260507161409 | 13 | 39 | 0.0 | 6.4 | 0.00 | 0.03 | 0.03 | 60 | 1013.7 |
| 20260507160906 | 13 | 273 | 1.6 | 1.6 | 0.00 | 0.03 | 0.03 | 65 | 1013.6 |
| 20260507160401 | 13 | 308 | 9.7 | 12.9 | 0.00 | 0.03 | 0.03 | 64 | 1013.7 |
| 20260507155858 | 14 | 324 | 14.5 | 16.1 | 0.00 | 0.03 | 0.03 | 66 | 1013.7 |
| 20260507155354 | 13 | 346 | 0.0 | 4.8 | 0.00 | 0.03 | 0.03 | 63 | 1014.0 |
| 20260507154851 | 12 | 275 | 6.4 | 14.5 | 0.00 | 0.03 | 0.03 | 67 | 1014.1 |
| 20260507154348 | 12 | 289 | 3.2 | 3.2 | 0.00 | 0.03 | 0.03 | 70 | 1014.3 |
| 20260507153845 | 12 | 288 | 4.8 | 14.5 | 0.00 | 0.03 | 0.03 | 65 | 1014.1 |
| 20260507153341 | 12 | 296 | 6.4 | 11.3 | 0.00 | 0.03 | 0.03 | 69 | 1014.0 |
| 20260507152838 | 12 | 0 | 0.0 | 4.8 | 0.00 | 0.03 | 0.03 | 69 | 1014.0 |
| 20260507152334 | 12 | 313 | 1.6 | 3.2 | 0.00 | 0.03 | 0.03 | 66 | 1014.1 |
| 20260507151830 | 13 | 317 | 1.6 | 6.4 | 0.00 | 0.03 | 0.03 | 69 | 1014.3 |
| 20260507151327 | 12 | 47 | 0.0 | 3.2 | 0.00 | 0.03 | 0.03 | 66 | 1014.1 |
| 20260507150824 | 11 | 302 | 8.0 | 9.7 | 0.00 | 0.03 | 0.03 | 69 | 1014.2 |
| 20260507150320 | 12 | 292 | 1.6 | 3.2 | 0.00 | 0.03 | 0.03 | 68 | 1014.2 |
| 20260507145816 | 11 | 306 | 1.6 | 3.2 | 0.00 | 0.03 | 0.03 | 69 | 1014.4 |
| 20260507145313 | 12 | 191 | 3.2 | 4.8 | 0.00 | 0.03 | 0.03 | 63 | 1014.5 |
| 20260507144810 | 13 | 83 | 1.6 | 3.2 | 0.00 | 0.03 | 0.03 | 74 | 1014.3 |
| 20260507144307 | 12 | 314 | 3.2 | 4.8 | 0.00 | 0.03 | 0.03 | 67 | 1014.4 |
| 20260507143804 | 11 | 275 | 1.6 | 9.7 | 0.00 | 0.03 | 0.03 | 70 | 1014.3 |
| 20260507143301 | 11 | 281 | 1.6 | 4.8 | 0.00 | 0.03 | 0.03 | 70 | 1014.3 |
| 20260507142757 | 11 | 308 | 8.0 | 14.5 | 0.00 | 0.03 | 0.03 | 72 | 1014.6 |
| 20260507142254 | 12 | 342 | 0.0 | 9.7 | 0.00 | 0.03 | 0.03 | 73 | 1014.5 |
| 20260507141750 | 11 | 350 | 1.6 | 3.2 | 0.00 | 0.03 | 0.03 | 73 | 1014.6 |
| 20260507141248 | 10 | 257 | 6.4 | 9.7 | 0.00 | 0.03 | 0.03 | 75 | 1014.6 |
| 20260507140743 | 10 | 220 | 1.6 | 3.2 | 0.00 | 0.03 | 0.03 | 73 | 1014.6 |
| 20260507140241 | 10 | 301 | 1.6 | 9.7 | 0.00 | 0.03 | 0.03 | 75 | 1014.9 |
| 20260507135738 | 10 | 300 | 3.2 | 9.7 | 0.00 | 0.03 | 0.03 | 72 | 1014.8 |
| 20260507135235 | 11 | 266 | 0.0 | 3.2 | 0.00 | 0.03 | 0.03 | 75 | 1014.9 |
| 20260507134731 | 10 | 297 | 3.2 | 4.8 | 0.00 | 0.03 | 0.03 | 78 | 1014.9 |
| 20260507134228 | 10 | 303 | 1.6 | 4.8 | 0.00 | 0.03 | 0.03 | 76 | 1014.8 |
| 20260507133724 | 10 | 300 | 4.8 | 9.7 | 0.00 | 0.03 | 0.03 | 76 | 1015.0 |
| 20260507133221 | 9 | 284 | 4.8 | 11.3 | 0.00 | 0.03 | 0.03 | 78 | 1015.1 |
| 20260507132718 | 9 | 229 | 0.0 | 4.8 | 0.00 | 0.03 | 0.03 | 78 | 1015.0 |
| 20260507132215 | 9 | 263 | 0.0 | 1.6 | 0.00 | 0.03 | 0.03 | 77 | 1015.1 |
| 20260507131712 | 9 | 256 | 3.2 | 6.4 | 0.00 | 0.03 | 0.03 | 77 | 1015.0 |
| 20260507131209 | 9 | 299 | 4.8 | 6.4 | 0.00 | 0.03 | 0.03 | 79 | 1014.9 |
| 20260507130706 | 9 | 321 | 3.2 | 4.8 | 0.00 | 0.03 | 0.03 | 78 | 1015.2 |
| 20260507130203 | 9 | 25 | 0.0 | 0.0 | 0.00 | 0.03 | 0.03 | 79 | 1015.1 |
| 20260507125702 | 9 | 277 | 0.0 | 1.6 | 0.00 | 0.03 | 0.03 | 79 | 1014.9 |
| 20260507125159 | 9 | 238 | 3.2 | 6.4 | 0.00 | 0.03 | 0.03 | 81 | 1014.9 |
| 20260507124655 | 9 | 295 | 6.4 | 11.3 | 0.00 | 0.03 | 0.03 | 80 | 1015.1 |
| 20260507124153 | 9 | 303 | 8.0 | 12.9 | 0.00 | 0.03 | 0.03 | 80 | 1015.1 |
| 20260507123651 | 9 | 295 | 6.4 | 9.7 | 0.00 | 0.03 | 0.03 | 80 | 1015.0 |
| 20260507123148 | 9 | 293 | 3.2 | 6.4 | 0.00 | 0.03 | 0.03 | 81 | 1014.9 |
| 20260507122643 | 8 | 321 | 8.0 | 9.7 | 0.00 | 0.03 | 0.03 | 81 | 1014.9 |
| 20260507122139 | 9 | 184 | 4.8 | 9.7 | 0.00 | 0.03 | 0.03 | 82 | 1014.9 |
| 20260507121635 | 9 | 316 | 9.7 | 11.3 | 0.00 | 0.03 | 0.03 | 84 | 1014.9 |
| 20260507121131 | 8 | 282 | 9.7 | 16.1 | 0.00 | 0.03 | 0.03 | 83 | 1014.8 |
| 20260507120628 | 8 | 307 | 4.8 | 11.3 | 0.00 | 0.03 | 0.03 | 85 | 1014.8 |
| 20260507120124 | 8 | 301 | 9.7 | 17.7 | 0.00 | 0.03 | 0.03 | 85 | 1014.6 |
| 20260507115621 | 9 | 332 | 1.6 | 16.1 | 0.00 | 0.03 | 0.03 | 85 | 1014.9 |
| 20260507115116 | 9 | 313 | 8.0 | 16.1 | 0.00 | 0.03 | 0.03 | 85 | 1014.7 |
| 20260507114612 | 9 | 296 | 4.8 | 16.1 | 0.00 | 0.03 | 0.03 | 86 | 1014.5 |
| 20260507114110 | 9 | 271 | 11.3 | 20.9 | 0.00 | 0.03 | 0.03 | 86 | 1014.6 |
| 20260507113607 | 9 | 291 | 9.7 | 14.5 | 0.00 | 0.03 | 0.03 | 87 | 1014.4 |
| 20260507113104 | 9 | 303 | 9.7 | 14.5 | 0.00 | 0.03 | 0.03 | 86 | 1014.1 |
| 20260507112602 | 9 | 309 | 11.3 | 17.7 | 0.00 | 0.03 | 0.03 | 87 | 1014.5 |
| 20260507112058 | 9 | 256 | 9.7 | 20.9 | 0.00 | 0.03 | 0.03 | 87 | 1014.2 |
| 20260507111555 | 9 | 317 | 6.4 | 14.5 | 0.00 | 0.03 | 0.03 | 86 | 1014.1 |
| 20260507111052 | 9 | 243 | 4.8 | 12.9 | 0.00 | 0.03 | 0.03 | 87 | 1014.3 |
| 20260507110548 | 9 | 297 | 3.2 | 14.5 | 0.00 | 0.03 | 0.03 | 87 | 1014.1 |
| 20260507110045 | 9 | 294 | 4.8 | 14.5 | 0.00 | 0.03 | 0.03 | 88 | 1014.2 |
| 20260507105542 | 10 | 329 | 3.2 | 9.7 | 0.00 | 0.03 | 0.03 | 88 | 1014.0 |
| 20260507105038 | 10 | 317 | 9.7 | 12.9 | 0.00 | 0.03 | 0.03 | 88 | 1014.2 |
| 20260507104535 | 10 | 307 | 1.6 | 9.7 | 0.00 | 0.03 | 0.03 | 89 | 1014.0 |
| 20260507104032 | 10 | 279 | 1.6 | 4.8 | 0.00 | 0.03 | 0.03 | 88 | 1013.9 |
| 20260507103528 | 10 | 309 | 3.2 | 6.4 | 0.00 | 0.03 | 0.03 | 87 | 1013.7 |
| 20260507103025 | 10 | 293 | 3.2 | 6.4 | 0.00 | 0.03 | 0.03 | 88 | 1013.7 |
| 20260507102521 | 10 | 306 | 3.2 | 9.7 | 0.00 | 0.03 | 0.03 | 88 | 1013.7 |
| 20260507102017 | 10 | 312 | 8.0 | 12.9 | 0.00 | 0.03 | 0.03 | 88 | 1013.5 |
| 20260507101513 | 10 | 318 | 4.8 | 11.3 | 0.00 | 0.03 | 0.03 | 87 | 1013.5 |
| 20260507101010 | 10 | 291 | 3.2 | 6.4 | 0.00 | 0.03 | 0.03 | 88 | 1013.4 |
| 20260507100507 | 10 | 293 | 6.4 | 6.4 | 0.00 | 0.03 | 0.03 | 89 | 1013.6 |
| 20260507100005 | 10 | 141 | 0.0 | 4.8 | 0.00 | 0.03 | 0.03 | 88 | 1014.0 |
| 20260507095503 | 10 | 149 | 1.6 | 11.3 | 0.00 | 0.03 | 0.03 | 89 | 1013.6 |
| 20260507094959 | 10 | 276 | 1.6 | 9.7 | 0.00 | 0.03 | 0.03 | 89 | 1013.7 |
| 20260507094455 | 10 | 262 | 4.8 | 4.8 | 0.00 | 0.03 | 0.03 | 89 | 1013.9 |
| 20260507093952 | 10 | 303 | 0.0 | 0.0 | 0.00 | 0.03 | 0.03 | 90 | 1013.7 |
| 20260507093450 | 10 | 323 | 0.0 | 0.0 | 0.00 | 0.03 | 0.03 | 90 | 1013.7 |
| 20260507092948 | 10 | 342 | 0.0 | 0.0 | 0.00 | 0.03 | 0.03 | 90 | 1013.6 |
| 20260507092444 | 10 | 300 | 0.0 | 0.0 | 0.00 | 0.03 | 0.03 | 90 | 1013.9 |
| 20260507091941 | 10 | 309 | 0.0 | 1.6 | 0.00 | 0.03 | 0.03 | 91 | 1013.7 |
| 20260507091438 | 10 | 287 | 0.0 | 0.0 | 0.00 | 0.03 | 0.03 | 92 | 1013.6 |
| 20260507090933 | 10 | 213 | 0.0 | 0.0 | 0.00 | 0.03 | 0.03 | 95 | 1013.5 |
| 20260507090430 | 10 | 134 | 0.0 | 0.0 | 0.00 | 0.03 | 0.03 | 94 | 1013.6 |
| 20260507085926 | 10 | 134 | 0.0 | 0.0 | 0.00 | 0.03 | 0.03 | 93 | 1013.6 |
| 20260507085424 | 10 | 137 | 0.0 | 0.0 | 0.00 | 0.03 | 0.03 | 92 | 1013.9 |
| 20260507084921 | 11 | 160 | 0.0 | 0.0 | 0.00 | 0.03 | 0.03 | 91 | 1013.6 |
| 20260507084417 | 11 | 283 | 0.0 | 1.6 | 0.00 | 0.03 | 0.03 | 88 | 1013.7 |
| 20260507083915 | 11 | 285 | 0.0 | 4.8 | 0.00 | 0.03 | 0.03 | 87 | 1013.5 |
| 20260507083411 | 10 | 287 | 4.8 | 4.8 | 0.00 | 0.03 | 0.03 | 90 | 1013.5 |